Location: Newark
(58.9986°N, 38.5006°E)
Time: 04:32:26
(UTC+00:00)

N. Korean satellite - Pass Details

Date: 10 December 2019
Orbit: 454 x 507 km, 97.2° (Epoch: 22 January)

Event Time Altitude Azimuth Distance (km) Brightness Sun altitude
Rises 14:05:52 0° 164° (SSE) 2,606 10.4 -10.7°
Reaches altitude 10° 14:07:57 10° 164° (SSE) 1,722 9.5 -10.9°
Maximum altitude 14:11:41 87° 253° (WSW) 513 6.6 -11.4°
Drops below altitude 10° 14:15:23 10° 344° (NNW) 1,716 9.2 -11.8°
Sets 14:17:28 0° 345° (NNW) 2,597 10.2 -12.0°
